Weather History for KPAE - February, 2013

Change the Weather History Date:

Wednesday, February 27, 2013

  Actual Average Record
Temperature  
Mean Temperature 44 °F -  
Max Temperature 48 °F 51 °F 64 °F (1992)
Min Temperature 39 °F 35 °F 20 °F (1962)
Degree Days  
Heating Degree Days 22    
Moisture  
Dew Point 38 °F    
Average Humidity 83    
Maximum Humidity 93    
Minimum Humidity 58    
Precipitation  
Precipitation 0.20 in - - ()
Sea Level Pressure  
Sea Level Pressure 30.27 in    
Wind  
Wind Speed 7 mph (South)    
Max Wind Speed 12 mph    
Max Gust Speed -    
Visibility 9 miles    
Events Rain    
Averages and records for this station are not official NWS values.
T = Trace of Precipitation, MM = Missing Value Source: NWS Daily Summary

Daily Weather History Graph

Daily Weather History Graph

Search for Another Location

Airport or City:

Trip Planner

Search our weather history database for the weather conditions in past years. The results will help you decide how hot, cold, wet, or windy it might be!

Date:

Astronomy

Feb. 27, 2013 Rise Set
Actual Time 6:53 AM PST 5:51 PM PST
Civil Twilight 6:21 AM PST 6:22 PM PST
Nautical Twilight 5:46 AM PST 6:58 PM PST
Astronomical Twilight 5:10 AM PST 7:34 PM PST
Moon 8:33 PM PST (2/27) 7:18 AM PST (2/27)
Length of Visible Light 12h 00m
Length of Day
10h 58m
Waning Gibbous, 96% of the Moon is Illuminated
Feb 27
Waning Gibbous
Mar 4
Last Quarter
Mar 11
New
Mar 19
First Quarter
Mar 27
Full

Hourly Weather History & Observations

Time (PST) Temp. Windchill Dew Point Humidity Pressure Visibility Wind Dir Wind Speed Gust Speed Precip Events Conditions
12:53 AM 39.9 °F 32.9 °F 36.0 °F 86% 30.21 in 8.0 mi South 11.5 mph - 0.03 in Rain Light Rain
1:53 AM 39.9 °F 34.5 °F 37.0 °F 89% 30.22 in 10.0 mi South 8.1 mph - 0.01 in   Overcast
2:53 AM 39.9 °F 33.4 °F 37.0 °F 89% 30.23 in 10.0 mi SSW 10.4 mph - N/A   Overcast
3:53 AM 39.0 °F 32.3 °F 36.0 °F 89% 30.24 in 10.0 mi South 10.4 mph - N/A   Overcast
4:53 AM 39.0 °F 34.0 °F 36.0 °F 89% 30.27 in 10.0 mi South 6.9 mph - N/A   Mostly Cloudy
5:03 AM 39.2 °F 35.0 °F 35.6 °F 87% 30.26 in 10.0 mi SSW 5.8 mph - N/A   Overcast
5:15 AM 39.2 °F 37.0 °F 35.6 °F 87% 30.26 in 10.0 mi SSW 3.5 mph - N/A   Overcast
5:53 AM 39.0 °F 36.8 °F 37.0 °F 93% 30.29 in 10.0 mi South 3.5 mph - N/A   Overcast
6:53 AM 39.0 °F 34.8 °F 36.0 °F 89% 30.30 in 10.0 mi South 5.8 mph - N/A   Mostly Cloudy
7:09 AM 39.2 °F 34.2 °F 35.6 °F 87% 30.29 in 10.0 mi South 6.9 mph - N/A   Mostly Cloudy
7:53 AM 39.9 °F 35.8 °F 37.9 °F 93% 30.30 in 10.0 mi South 5.8 mph - N/A   Overcast
8:01 AM 39.2 °F 35.0 °F 37.4 °F 93% 30.29 in 10.0 mi SSE 5.8 mph - N/A   Overcast
8:22 AM 39.2 °F 35.9 °F 37.4 °F 93% 30.29 in 10.0 mi South 4.6 mph - N/A   Partly Cloudy
8:53 AM 41.0 °F 35.8 °F 37.9 °F 89% 30.30 in 10.0 mi SSE 8.1 mph - N/A   Clear
9:53 AM 44.1 °F 38.1 °F 36.0 °F 73% 30.28 in 10.0 mi South 11.5 mph - N/A   Partly Cloudy
10:53 AM 44.1 °F 40.8 °F 35.1 °F 71% 30.29 in 10.0 mi Variable 5.8 mph - N/A   Mostly Cloudy
11:00 AM 44.6 °F 39.7 °F 35.6 °F 71% 30.28 in 10.0 mi SSE 9.2 mph - N/A   Mostly Cloudy
11:33 AM 46.4 °F 41.9 °F 35.6 °F 66% 30.30 in 10.0 mi SSW 9.2 mph - N/A   Overcast
11:53 AM 46.9 °F - 34.0 °F 61% 30.30 in 10.0 mi South 9.2 mph - N/A   Overcast
12:53 PM 48.0 °F - 35.1 °F 61% 30.30 in 10.0 mi South 9.2 mph - N/A   Mostly Cloudy
1:53 PM 48.0 °F - 34.0 °F 58% 30.27 in 10.0 mi South 8.1 mph - N/A   Overcast
2:53 PM 45.0 °F 39.7 °F 37.9 °F 76% 30.29 in 6.0 mi South 10.4 mph - 0.01 in Rain Rain
3:53 PM 45.0 °F 39.7 °F 39.0 °F 80% 30.27 in 10.0 mi SSE 10.4 mph - 0.01 in   Overcast
4:00 PM 44.6 °F 40.2 °F 39.2 °F 81% 30.26 in 10.0 mi SSE 8.1 mph - N/A   Overcast
4:53 PM 45.0 °F 42.6 °F 39.0 °F 80% 30.26 in 10.0 mi South 4.6 mph - 0.00 in Rain Light Rain
5:53 PM 44.1 °F 41.5 °F 39.9 °F 85% 30.28 in 6.0 mi West 4.6 mph - 0.06 in Rain Light Rain
5:59 PM 44.6 °F 42.2 °F 39.2 °F 81% 30.26 in 4.0 mi SSW 4.6 mph - 0.02 in Rain Rain
6:14 PM 44.6 °F - 41.0 °F 87% 30.26 in 6.0 mi Calm Calm - 0.03 in Rain Light Rain
6:37 PM 44.6 °F - 39.2 °F 81% 30.25 in 10.0 mi Calm Calm - 0.03 in Rain Light Rain
6:53 PM 44.1 °F - 41.0 °F 89% 30.27 in 10.0 mi Calm Calm - 0.03 in   Overcast
7:38 PM 42.8 °F - 41.0 °F 93% 30.27 in 10.0 mi Calm Calm - 0.01 in Rain Light Rain
7:53 PM 43.0 °F 41.3 °F 41.0 °F 93% 30.29 in 10.0 mi East 3.5 mph - 0.01 in Rain Light Rain
8:53 PM 43.0 °F 41.3 °F 39.9 °F 89% 30.29 in 9.0 mi Variable 3.5 mph - 0.03 in Rain Light Rain
9:53 PM 42.1 °F 37.7 °F 39.9 °F 92% 30.29 in 10.0 mi ESE 6.9 mph - 0.01 in   Overcast
10:53 PM 42.1 °F 37.1 °F 39.0 °F 89% 30.28 in 10.0 mi East 8.1 mph - N/A   Overcast
11:53 PM 41.0 °F 36.4 °F 37.9 °F 89% 30.27 in 10.0 mi ESE 6.9 mph - N/A   Overcast